Location: Unspecified
(0.0000°N, 0.0000°E)
Time: 02:28:58
(UTC+00:00)

Tiros 1 despin weight - Visible Passes

Search period start: 15 December 2017 00:00
Search period end: 25 December 2017 00:00
Orbit: 595 x 643 km, 48.2° (Epoch: 14 December)

Date Brightness Start Highest point End Pass type
(mag) Time Alt. Az. Time Alt. Az. Time Alt. Az.
16 Dec ? 04:27:51 10° N 04:30:37 16° NE 04:33:22 10° E visible
16 Dec ? 18:16:49 10° WSW 18:20:29 22° NW 18:24:07 10° N visible
17 Dec ? 04:44:22 17° NNW 04:47:27 44° NE 04:51:39 10° ESE visible
18 Dec ? 05:01:06 18° NW 05:04:15 62° SW 05:08:37 10° SSE visible
19 Dec ? 03:40:41 23° ENE 03:40:41 23° ENE 03:43:18 10° ESE visible
19 Dec ? 05:17:48 11° W 05:21:04 22° SW 05:24:30 10° S visible
20 Dec ? 03:57:22 54° ESE 03:57:22 54° ESE 04:00:54 10° SE visible
21 Dec ? 04:13:58 36° SSW 04:13:58 36° SSW 04:17:25 10° SSE visible
22 Dec ? 04:30:31 14° SW 04:30:31 14° SW 04:32:33 10° SSW visible
23 Dec ? 03:09:54 10° SSE 03:09:54 10° SSE 03:09:56 10° SSE visible
